Location: Ca��n la Puerta
(32.5440°N, 116.6804°W)
Time: 21:35:27
(UTC+00:00)

Daily predictions for brighter satellites

Satellite Brightness Start Highest point End
(mag) Time Altitude Azimuth Time Altitude Azimuth Time Altitude Azimuth
Cosmos 1805 Rocket 4.0 12:00:36 10° S 12:04:53 64° E 12:09:13 10° NNE
CZ-3B R/B 4.3 12:06:43 10° N 12:08:02 14° NE 12:09:19 10° ENE
PSLV R/B 3.6 12:05:38 10° N 12:09:57 65° WNW 12:14:16 10° SSW
Nadezhda 2 Rocket 4.5 12:04:14 10° S 12:10:20 85° W 12:16:28 10° N
Cosmos 1484 Rocket 2.7 12:06:41 10° NNE 12:10:23 89° E 12:14:05 10° SSW
BREEZE-M DEB (TANK) 3.5 12:08:31 10° WSW 12:12:32 38° NW 12:15:13 10° NE
Lacrosse 4 Rocket 2.2 12:11:05 10° NW 12:14:35 29° WSW 12:18:03 10° SSW
Cosmos 1656 4.3 12:12:06 10° NNW 12:17:46 64° ENE 12:23:22 10° SSE
ATLAS 3B CENTAUR R/B 4.0 12:11:13 10° W 12:28:16 68° SSW 12:36:21 10° ESE
